DateTimeUTC,F1_A11,F1_S11,BsB_S11,BsG_S11,BsR_S11,BbsB_S11,BbsG_S11,BbsR_S11,BaB_A11,BaG_A11,BaR_A11,Tu_S11,T_S11,Uu_S11,U_S11,P_S11,T1_A11
2021-06-27T09:00:00Z,00000200,20000000,,,,,,,-000.07,0000.23,0000.15,18.3,25.3,02.6,01.7,0670.8,31.1
2021-06-27T09:01:00Z,00000200,20000000,,,,,,,-000.07,0000.06,-000.12,18.3,25.3,02.6,01.7,0670.8,31.1
2021-06-27T09:02:00Z,00000200,20000000,,,,,,,0000.40,-000.40,0000.13,18.3,25.3,02.6,01.7,0670.8,31.1
2021-06-27T09:03:00Z,00000200,60000000,,,,,,,0000.11,0000.48,0000.05,18.3,25.3,02.6,01.7,0670.8,31.1
2021-06-27T09:04:00Z,00000200,40000000,-000.06,0000.16,-000.04,-000.01,-000.28,-000.23,-000.50,-000.49,-000.16,18.5,25.1,02.6,01.7,0671.7,31.1
2021-06-27T09:05:00Z,00000200,00000000,0000.35,0000.23,0000.04,-000.08,0000.12,0000.29,0000.38,0000.16,0000.30,18.6,25.1,02.7,01.8,0671.8,31.1
2021-06-27T09:06:00Z,00000200,00000000,0000.46,0000.30,0000.09,-000.41,-000.05,-000.11,-000.22,0000.14,-000.21,18.6,25.1,02.6,01.8,0671.8,31.1
2021-06-27T09:07:00Z,00000200,00000000,-000.01,0000.17,-000.12,-000.28,0000.18,0000.13,-000.02,-000.11,0000.05,18.6,25.1,02.7,01.8,0671.8,31.1
2021-06-27T09:08:00Z,00000200,00000000,-000.15,0000.19,0000.06,0000.24,0000.04,-000.07,0000.15,0000.14,0000.03,18.5,25.1,02.7,01.8,0671.8,31.1
2021-06-27T09:09:00Z,00000200,00000000,0000.17,0000.10,0000.19,0000.05,0000.02,-000.15,0000.05,0000.17,0000.04,18.5,25.0,02.7,01.8,0671.8,31.1
2021-06-27T09:10:00Z,00000200,00000000,0000.20,0000.19,-000.21,0000.42,-000.28,-000.12,-000.18,0000.05,-000.30,18.5,25.0,02.7,01.8,0671.8,31.1
2021-06-27T09:11:00Z,00000200,00000000,0000.22,-000.13,-000.10,0000.02,-000.28,0000.01,0000.00,-000.31,0000.35,18.4,25.0,02.7,01.8,0671.8,31.1
2021-06-27T09:12:00Z,00000200,00000000,-000.01,0000.11,0000.01,0000.10,-000.02,-000.12,-000.26,-000.13,-000.17,18.4,25.0,02.7,01.8,0671.8,31.1
2021-06-27T09:13:00Z,00000200,00000000,-000.23,0000.04,0000.02,-000.25,-000.07,0000.16,0000.13,0000.21,-000.21,18.4,24.9,02.7,01.8,0671.8,31.1
2021-06-27T09:14:00Z,00000200,00000000,0000.42,0000.24,0000.01,-000.16,0000.00,-000.06,0000.27,-000.09,-000.04,18.3,24.9,02.8,01.8,0671.8,31.1
2021-06-27T09:15:00Z,00000200,00000000,0000.20,-000.03,0000.02,0000.77,-000.07,0000.04,-000.02,0000.07,-000.22,18.3,24.9,02.7,01.8,0671.8,31.1
2021-06-27T09:16:00Z,00000200,00000000,0000.97,0000.14,-000.18,0000.24,0000.05,-000.16,-000.09,-000.08,0000.56,18.3,24.9,02.8,01.9,0671.8,31.1
2021-06-27T09:17:00Z,00000200,00000000,-000.07,0000.21,-000.06,-000.14,0000.26,-000.01,0000.34,0000.06,0000.10,18.3,24.8,02.7,01.8,0671.8,31.1
2021-06-27T09:18:00Z,00000200,00000000,0000.77,0000.54,-000.18,-000.16,-000.08,-000.25,-000.12,0000.39,-000.07,18.3,24.8,02.7,01.8,0671.8,31.1
2021-06-27T09:19:00Z,00000200,00000000,-000.30,0000.52,0000.02,0000.33,-000.23,-000.02,0000.24,0000.02,0000.26,18.4,24.8,02.7,01.8,0671.8,31.1
2021-06-27T09:20:00Z,00000200,00000000,0000.37,0000.12,0000.48,0000.08,0000.06,0000.08,0000.01,0000.00,-000.14,18.5,24.9,02.7,01.8,0671.8,31.1
2021-06-27T09:21:00Z,00000200,00000000,-000.04,0000.13,0000.28,-000.17,-000.24,-000.19,-000.07,-000.03,-000.09,18.6,25.0,02.8,01.9,0671.8,31.1
2021-06-27T09:22:00Z,00000200,00000000,0000.32,0000.28,0000.09,0000.13,-000.21,-000.23,-000.08,0000.03,0000.28,18.7,25.0,02.8,01.9,0671.8,31.1
2021-06-27T09:23:00Z,00000200,00000000,-000.09,-000.10,-000.14,0000.14,0000.21,-000.03,0000.29,-000.04,-000.03,18.7,25.0,02.8,01.9,0671.8,31.1
2021-06-27T09:24:00Z,00000200,00000000,0000.03,0000.14,0000.50,-000.04,0000.11,-000.13,-000.35,0000.07,-000.30,18.6,25.0,02.8,01.9,0671.8,31.1
2021-06-27T09:25:00Z,00000200,00000000,0000.46,0000.21,0000.09,-000.11,-000.08,-000.20,-000.03,-000.08,0000.33,18.6,25.0,02.8,01.9,0671.8,31.1
2021-06-27T09:26:00Z,00000200,00000000,0000.68,0000.14,-000.17,-000.42,0000.20,-000.19,0000.64,-000.06,-000.08,18.6,25.0,02.8,01.9,0671.8,31.1
2021-06-27T09:27:00Z,00000200,00000000,0000.12,-000.17,0000.00,-000.21,-000.00,0000.09,-000.40,0000.23,-000.04,18.5,24.9,02.9,01.9,0671.8,31.1
2021-06-27T09:28:00Z,00000200,00000000,0000.03,-000.04,0000.20,-000.43,-000.10,0000.16,0000.12,0000.17,-000.05,18.5,24.9,02.9,02.0,0671.8,31.1
2021-06-27T09:29:00Z,00000200,00000000,0000.76,0000.24,0000.07,-000.11,0000.06,-000.28,-000.13,0000.02,0000.08,18.5,24.9,03.0,02.0,0671.8,31.1
2021-06-27T09:30:00Z,00000200,00000000,0000.33,0000.18,0000.17,0000.31,-000.04,0000.04,0000.08,-000.12,-000.01,18.5,24.9,02.9,02.0,0671.8,31.1
2021-06-27T09:31:00Z,00000200,00000000,-001.13,0000.25,0000.19,-000.10,-000.23,0000.09,0000.32,-000.06,0000.25,18.4,24.9,03.0,02.0,0671.8,31.1
2021-06-27T09:32:00Z,00000200,00000000,0000.49,-000.14,0000.04,0000.01,-000.20,0000.14,-000.13,-000.05,-000.09,18.4,24.9,03.0,02.0,0671.8,31.1
2021-06-27T09:33:00Z,00000200,00000000,0000.42,0000.36,-000.07,-000.34,-000.25,-000.15,0000.43,0000.37,0000.24,18.4,24.9,03.0,02.0,0671.8,31.1
2021-06-27T09:34:00Z,00000200,00000000,0000.24,-000.06,0000.21,-000.28,0000.22,0000.13,-000.06,0000.19,0000.09,18.5,24.9,03.2,02.2,0671.8,31.1
2021-06-27T09:35:00Z,00000200,00000000,0001.01,0000.19,0000.07,0000.17,-000.32,-000.03,-000.04,-000.18,0000.04,18.6,24.9,03.2,02.2,0671.8,31.1
2021-06-27T09:36:00Z,00000200,00000000,-000.38,0000.19,0000.24,-000.14,-000.28,-000.10,-000.05,0000.19,-000.08,18.6,25.0,03.1,02.1,0671.8,31.1
2021-06-27T09:37:00Z,00000200,00000000,0000.32,0000.43,-000.00,-000.11,-000.11,0000.14,-000.12,-000.17,-000.11,18.6,25.0,03.1,02.1,0671.8,31.1
2021-06-27T09:38:00Z,00000200,00000000,0000.02,0000.35,0000.11,-000.04,0000.08,-000.14,0000.25,-000.13,-000.11,18.6,25.0,03.0,02.1,0671.8,31.1
2021-06-27T09:39:00Z,00000200,00000000,0000.17,0000.26,0000.06,-000.30,-000.18,0000.01,-000.28,0000.27,0000.01,18.6,24.9,03.0,02.0,0671.8,31.1
2021-06-27T09:40:00Z,00000200,00000000,-000.48,0000.35,0000.11,-000.44,-000.09,-000.20,0000.11,0000.11,0000.17,18.6,24.9,03.1,02.1,0671.8,31.1
2021-06-27T09:41:00Z,00000200,00000000,0000.12,0000.29,-000.03,0000.62,0000.02,-000.11,0000.28,-000.27,-000.01,18.5,24.9,03.0,02.0,0671.8,31.1
2021-06-27T09:42:00Z,00000200,00000000,0000.14,0000.57,0000.02,-000.26,-000.01,0000.10,-000.18,0000.18,-000.02,18.5,24.9,03.1,02.1,0671.8,31.1
2021-06-27T09:43:00Z,00000200,00000000,-000.02,0000.27,0000.00,0000.11,-000.05,-000.14,0000.13,0000.17,0000.12,18.5,24.9,03.1,02.1,0671.8,31.1
2021-06-27T09:44:00Z,00000200,00000000,0000.47,0000.21,0000.13,-000.21,-000.16,0000.00,0000.08,-000.26,0000.07,18.4,24.9,03.1,02.1,0671.8,31.1
2021-06-27T09:45:00Z,00000200,00000000,-000.04,0000.06,0000.00,0000.37,-000.04,0000.07,-000.29,0000.18,-000.15,18.4,24.8,03.2,02.1,0671.8,31.1
2021-06-27T09:46:00Z,00000200,00000000,-000.12,0000.25,0000.17,0000.41,0000.00,-000.05,0000.07,-000.22,-000.05,18.4,24.8,03.1,02.1,0671.8,31.1
2021-06-27T09:47:00Z,00000200,00000000,0000.22,0000.18,0000.27,-000.60,0000.26,0000.17,0000.34,0000.31,0000.18,18.4,24.8,03.1,02.1,0671.8,31.1
2021-06-27T09:48:00Z,00000200,00000000,0000.23,0000.15,-000.11,-000.21,0000.20,-000.12,-000.18,-000.27,-000.17,18.4,24.8,03.1,02.1,0671.8,31.1
2021-06-27T09:49:00Z,00000200,00000000,0000.17,0000.09,0000.24,-000.72,0000.39,-000.03,-000.10,-000.01,-000.04,18.4,24.8,03.1,02.1,0671.7,31.1
2021-06-27T09:50:00Z,00000200,00000000,0000.10,0000.31,0000.03,0000.11,-000.02,0000.05,0000.00,-000.00,0000.47,18.4,24.8,03.2,02.2,0671.8,31.1
2021-06-27T09:51:00Z,00000200,00000000,0000.07,0000.27,-000.05,-000.18,-000.04,0000.00,0000.16,-000.03,-000.37,18.4,24.8,03.2,02.2,0671.7,31.1
2021-06-27T09:52:00Z,00000200,00000000,0000.58,0000.12,-000.23,0000.17,-000.07,-000.24,0000.16,0000.15,-000.38,18.4,24.8,03.2,02.2,0671.7,31.1
2021-06-27T09:53:00Z,00000200,00000000,0000.40,-000.09,-000.12,-000.07,0000.29,-000.17,0000.05,0000.10,0000.20,18.4,24.8,03.3,02.2,0671.7,31.1
2021-06-27T09:54:00Z,00000200,00000000,0000.51,0000.31,-000.24,-000.23,-000.04,-000.04,-000.14,-000.14,0000.20,18.4,24.8,03.2,02.2,0671.7,31.1
2021-06-27T09:55:00Z,00000200,00000000,-000.40,0000.17,0000.23,0000.37,-000.17,-000.22,0000.12,0000.13,0000.35,18.4,24.8,03.3,02.2,0671.7,31.1
2021-06-27T09:56:00Z,00000200,00000000,-000.08,-000.01,0000.25,0000.02,0000.03,0000.14,-000.05,0000.05,-000.27,18.3,24.8,03.4,02.3,0671.7,31.1
2021-06-27T09:57:00Z,00000200,40000000,,,,,,,-000.47,-000.67,-000.19,18.4,24.8,03.3,02.2,0671.7,31.1
2021-06-27T09:58:00Z,00000200,60000000,,,,,,,0000.27,0000.75,0000.15,18.1,24.9,03.2,02.1,0670.7,31.1
2021-06-27T09:59:00Z,00000200,20000000,,,,,,,0000.23,-000.03,-000.16,18.0,25.0,03.2,02.1,0670.7,31.1
